Photometre #720[NE_1.6] FZJ-JOYCE AOT

File : 20220927_720.hum

27/09/2022,06:24:32,TEMP=14.4,BA=5.44,STAT.h
27/09/2022,06:24:33,TEMP=14.4,BA=5.44,STAT.h
27/09/2022,06:29:01,TEMP=8.7,BA=5.44,STAT.A=10.5,ExtBa=12.89
27/09/2022,06:33:53,TEMP=9.5,BA=5.24,STAT.A=10.0,ExtBa=12.74
27/09/2022,06:39:40,TEMP=9.5,BA=5.24,STAT.A=10.0,ExtBa=12.72
27/09/2022,06:43:20,TEMP=9.8,BA=5.24,STAT.h
27/09/2022,06:46:40,TEMP=9.4,BA=5.24,STAT.h
27/09/2022,06:46:52,TEMP=9.4,BA=5.24,STAT.h
27/09/2022,06:55:20,TEMP=9.4,BA=5.52,STAT.h
27/09/2022,06:55:33,TEMP=9.4,BA=5.52,STAT.h
27/09/2022,07:06:22,TEMP=9.2,BA=5.52,STAT.B=10.5,ExtBa=12.80
27/09/2022,07:11:41,TEMP=9.9,BA=5.28,STAT.A=10.0,ExtBa=12.72
27/09/2022,07:17:18,TEMP=10.3,BA=5.28,STAT.h
27/09/2022,07:17:19,TEMP=10.3,BA=5.28,STAT.h
27/09/2022,07:24:04,TEMP=10.3,BA=5.64,STAT.h
27/09/2022,07:31:50,TEMP=10.3,BA=5.64,STAT.h
27/09/2022,07:31:56,TEMP=10.3,BA=5.64,STAT.h
27/09/2022,07:40:49,TEMP=10.3,BA=5.64,STAT.h
27/09/2022,07:40:50,TEMP=10.3,BA=5.64,STAT.h
27/09/2022,07:51:24,TEMP=10.3,BA=5.64,STAT.h
27/09/2022,07:51:25,TEMP=10.3,BA=5.64,STAT.h
27/09/2022,08:04:27,TEMP=10.7,BA=5.64,STAT.A=10.5,ExtBa=13.11
27/09/2022,08:20:01,TEMP=11.1,BA=5.64,STAT.A=10.5,ExtBa=12.94
27/09/2022,08:26:02,TEMP=11.7,BA=5.52,STAT.F,ExtBa=12.92
27/09/2022,08:41:00,TEMP=11.9,BA=5.64,STAT.D=10.5,ExtBa=13.12
27/09/2022,08:55:40,TEMP=12.2,BA=5.64,STAT.h
27/09/2022,08:55:46,TEMP=12.2,BA=5.64,STAT.h
27/09/2022,09:10:40,TEMP=12.2,BA=5.64,STAT.h
27/09/2022,09:10:46,TEMP=12.2,BA=5.64,STAT.h
27/09/2022,09:26:02,TEMP=12.0,BA=5.64,STAT.F,ExtBa=13.48
27/09/2022,09:41:29,TEMP=13.0,BA=5.48,STAT.D=10.5,ExtBa=12.83
27/09/2022,09:56:01,TEMP=12.9,BA=5.64,STAT.D=10.5,ExtBa=13.00
27/09/2022,10:11:01,TEMP=12.3,BA=5.64,STAT.D=10.5,ExtBa=12.89
27/09/2022,10:26:02,TEMP=11.7,BA=5.64,STAT.F,ExtBa=12.98
27/09/2022,10:41:01,TEMP=13.0,BA=5.64,STAT.D=10.5,ExtBa=13.13
27/09/2022,10:56:01,TEMP=12.7,BA=5.64,STAT.D=10.5,ExtBa=12.97
27/09/2022,11:11:01,TEMP=12.6,BA=5.64,STAT.D=10.5,ExtBa=13.10
27/09/2022,11:26:03,TEMP=12.9,BA=5.64,STAT.F,ExtBa=12.94
27/09/2022,11:29:10,TEMP=13.2,BA=5.64,STAT.h
27/09/2022,11:40:40,TEMP=13.2,BA=5.64,STAT.h
27/09/2022,11:40:46,TEMP=13.2,BA=5.64,STAT.h
27/09/2022,11:55:40,TEMP=13.2,BA=5.64,STAT.h
27/09/2022,11:55:46,TEMP=13.2,BA=5.64,STAT.h
27/09/2022,12:10:40,TEMP=13.2,BA=5.64,STAT.h
27/09/2022,12:10:46,TEMP=13.2,BA=5.64,STAT.h
27/09/2022,12:26:02,TEMP=12.1,BA=5.64,STAT.F,ExtBa=13.39
27/09/2022,12:26:55,TEMP=12.1,BA=5.64,STAT.h
27/09/2022,12:41:01,TEMP=12.4,BA=5.64,STAT.D=10.5,ExtBa=13.34
27/09/2022,12:44:15,TEMP=12.9,BA=5.64,STAT.h
27/09/2022,12:56:01,TEMP=11.1,BA=5.60,STAT.D=10.5,ExtBa=13.12
27/09/2022,13:11:01,TEMP=11.3,BA=5.64,STAT.D=10.5,ExtBa=13.25
27/09/2022,13:11:45,TEMP=11.3,BA=5.64,STAT.h
27/09/2022,13:11:56,TEMP=11.3,BA=5.64,STAT.h
27/09/2022,13:26:01,TEMP=11.4,BA=5.64,STAT.F,ExtBa=13.30
27/09/2022,13:41:01,TEMP=12.2,BA=5.64,STAT.D=10.0,ExtBa=12.87
27/09/2022,13:56:01,TEMP=13.3,BA=5.64,STAT.D=10.5,ExtBa=13.94
27/09/2022,14:11:01,TEMP=13.7,BA=5.64,STAT.D=10.5,ExtBa=13.28
27/09/2022,14:26:02,TEMP=12.8,BA=5.64,STAT.F,ExtBa=13.14
27/09/2022,14:29:57,TEMP=13.3,BA=5.64,STAT.h
27/09/2022,14:31:41,TEMP=13.3,BA=5.36,STAT.h
27/09/2022,14:31:42,TEMP=13.3,BA=5.36,STAT.h
27/09/2022,14:47:15,TEMP=13.3,BA=5.56,STAT.h
27/09/2022,14:47:21,TEMP=13.3,BA=5.56,STAT.h
27/09/2022,15:00:18,TEMP=9.2,BA=5.64,STAT.A=10.5,ExtBa=13.07
27/09/2022,15:10:53,TEMP=9.7,BA=5.64,STAT.C=10.5,ExtBa=13.05
27/09/2022,15:27:09,TEMP=11.3,BA=5.52,STAT.A=10.5,ExtBa=13.00
27/09/2022,15:29:13,TEMP=11.7,BA=5.52,STAT.A=10.0,ExtBa=13.01
27/09/2022,15:34:24,TEMP=11.8,BA=5.48,STAT.A=10.5,ExtBa=12.97
27/09/2022,15:40:23,TEMP=11.6,BA=5.64,STAT.A=10.5,ExtBa=12.86
27/09/2022,15:45:41,TEMP=11.8,BA=5.64,STAT.B=10.0,ExtBa=12.77
27/09/2022,15:56:42,TEMP=10.9,BA=5.56,STAT.A=10.5,ExtBa=12.80
27/09/2022,16:05:22,TEMP=10.7,BA=5.36,STAT.A=10.5,ExtBa=12.79
27/09/2022,16:12:01,TEMP=11.3,BA=5.44,STAT.h
27/09/2022,16:12:02,TEMP=11.3,BA=5.44,STAT.h
27/09/2022,16:18:09,TEMP=10.3,BA=5.44,STAT.A=10.5,ExtBa=12.80
27/09/2022,16:19:30,TEMP=10.3,BA=5.44,STAT.h
27/09/2022,16:19:42,TEMP=10.3,BA=5.44,STAT.h
27/09/2022,16:22:55,TEMP=10.3,BA=5.48,STAT.h
27/09/2022,16:22:59,TEMP=10.3,BA=5.48,STAT.h
27/09/2022,16:27:09,TEMP=10.2,BA=5.48,STAT.A=10.5,ExtBa=12.79